utc_time,unix_time,temp,cond,salinity,tds,chla_rfu,chla_ugl,bga_rfu,bga_ugl,odo,sat,nitrate_um,nitrogen_mg,stage,area,discharge,total_discharge
2018-07-01 00:00:00+00:00,1530404370,23.554,55896.98,38.33,37.36,0.34,1.36,0.59,1.64,10.45,153.36,51.424,0.72029,0.835,1.336,0.0473,0.0946
2018-07-01 00:20:00+00:00,1530405570,23.184,54336.21,37.44,36.59,0.35,1.4,0.38,1.05,10.56,153.17,65.435,0.91655,0.8365,1.3384,0.01555,0.0311
2018-07-01 00:40:00+00:00,1530406770,22.99,56116.77,39,37.93,0.3,1.21,0.4,1.12,10.5,153.2,77.566,1.08643,0.838,1.3408,0.0237,0.0474
2018-07-01 01:00:00+00:00,1530407969,22.817,53758.52,37.3,36.46,0.38,1.53,0.41,1.14,10.47,150.86,80.924,1.13349,0.839,1.3424,0.025,0.05
2018-07-01 01:20:00+00:00,1530409169,22.623,54606.86,38.14,37.18,0.39,1.56,0.47,1.31,10.24,147.74,87.355,1.22354,0.8405,1.3448,0.00875,0.0175
2018-07-01 01:40:00+00:00,1530410369,22.364,54419.1,38.21,37.25,0.38,1.53,0.52,1.44,10.49,150.77,93.878,1.31494,0.841,1.3456,0.0238,0.0476
2018-07-01 02:00:00+00:00,1530411570,22.146,51747.24,36.29,35.58,0.31,1.23,0.41,1.14,10.24,144.95,101.678,1.42419,0.843,1.3488,0.0314,0.0628
2018-07-01 02:20:00+00:00,1530412770,21.93,53308.78,37.71,36.81,0.22,0.88,0.23,0.65,9.74,138.52,110.714,1.55075,0.844,1.3504,0.01765,0.0353
2018-07-01 02:40:00+00:00,1530413970,21.672,51990.7,36.88,36.09,0.15,0.62,0.12,0.34,9.9,139.49,119.475,1.67344,0.847,1.3552,-0.0013,-0.0026
2018-07-01 03:00:00+00:00,1530415170,21.3,51083.94,36.47,35.73,0.24,0.97,0.2,0.57,10.2,142.36,136.679,1.91442,0.847,1.3552,0.0013,0.0026
2018-07-01 03:20:00+00:00,1530416370,20.874,50391.21,36.28,35.56,0.14,0.57,0.05,0.13,9.74,134.81,160.127,2.24284,0.8495,1.3592,0.0114,0.0228
2018-07-01 03:40:00+00:00,1530417570,20.477,50001.69,36.3,35.57,0.12,0.49,-0.01,-0.03,9.31,127.94,180.36,2.52625,0.851,1.3616,-0.0025,-0.005
2018-07-01 04:00:00+00:00,1530418769,20.171,49606.89,36.24,35.52,0.85,3.4,0.34,0.96,9.21,125.9,192.279,2.69319,0.852,1.3632,0.0153,0.0306
2018-07-01 04:20:00+00:00,1530419970,19.815,48661.94,35.77,35.11,0.27,1.08,0.23,0.63,8.98,121.49,203.916,2.85622,0.8535,1.3656,0,0
2018-07-01 04:40:00+00:00,1530421170,19.62,48843.52,36.09,35.38,0.32,1.3,0.26,0.72,8.92,120.49,212.66,2.97871,0.858,1.3728,0.0026,0.0052
2018-07-01 05:00:00+00:00,1530422369,19.328,47337.78,35.08,34.51,0.29,1.15,0.22,0.62,8.86,118.42,220.769,3.09221,0.858,1.3728,-0.0384,-0.0768
2018-07-01 05:20:00+00:00,1530423569,18.92,47831.3,35.85,35.18,0.19,0.74,0.18,0.5,8.83,117.6,229.484,3.21431,0.8605,1.3768,-0.01285,-0.0257
2018-07-01 05:40:00+00:00,1530424769,18.609,46603.23,35.08,34.5,0.23,0.91,0.24,0.66,8.92,117.58,234.413,3.28336,0.863,1.3808,0.0077,0.0154
2018-07-01 06:00:00+00:00,1530425969,18.245,45963.41,34.85,34.3,0.16,0.64,0.04,0.1,8.25,107.85,239.587,3.35582,0.865,1.384,-0.0814,-0.1628
2018-07-01 06:20:00+00:00,1530427169,18.315,45871.41,34.71,34.18,0.16,0.66,0.3,0.85,8.14,106.43,235.261,3.29524,0.8695,1.3912,-0.00845,-0.0169
2018-07-01 06:40:00+00:00,1530428369,18.098,45711.38,34.76,34.22,0.12,0.47,0.01,0.02,7.51,97.93,231.338,3.24029,0.872,1.3952,0,0
2018-07-01 07:00:00+00:00,1530429569,18.128,45574.88,34.61,34.1,0.21,0.84,0.12,0.33,7.65,99.64,229.48,3.21425,0.873,1.3968,0.017,0.034
2018-07-01 07:20:00+00:00,1530430769,18.088,46151.18,35.14,34.56,0.24,0.96,0.14,0.4,7.35,95.97,221.365,3.10062,0.8755,1.4008,0.08115,0.1623
2018-07-01 07:40:00+00:00,1530431969,18.134,45275.73,34.36,33.87,0.19,0.76,0.31,0.87,6.94,90.24,212.852,2.98136,0.88,1.408,0.0947,0.1894
2018-07-01 08:40:00+00:00,1530435569,18.071,45890.97,34.93,34.38,0.35,1.41,0.36,1.01,6.21,81.01,192.976,2.70298,0.886,1.4176,0.0172,0.0344
2018-07-01 09:00:00+00:00,1530436769,17.94,46133.42,35.25,34.66,0.22,0.87,0.13,0.35,6.46,84.2,190.817,2.67274,0.887,1.4192,0.0477,0.0954
2018-07-01 09:20:00+00:00,1530437969,17.805,47135.32,36.23,35.52,0.23,0.91,0.38,1.07,5.78,75.54,184.392,2.58272,0.8905,1.4248,0.0952,0.1904
2018-07-01 09:40:00+00:00,1530439169,17.725,44419.6,33.97,33.53,0.22,0.88,0.18,0.5,5.48,70.55,178.378,2.49848,0.892,1.4272,0.088,0.176
2018-07-01 10:00:00+00:00,1530440369,17.62,45802.81,35.25,34.66,0.09,0.35,0.15,0.43,5.35,69.28,168.796,2.3643,0.893,1.4288,0.1055,0.211
2018-07-01 10:20:00+00:00,1530441569,17.522,45228.96,34.84,34.3,0.13,0.53,0.25,0.7,4.9,63.17,167.058,2.33995,0.8935,1.4296,0.0668,0.1336
2018-07-01 10:40:00+00:00,1530442768,17.526,46503.8,35.93,35.26,0.11,0.44,0.13,0.36,4.52,58.71,163.233,2.28634,0.894,1.4304,0.0401,0.0802
2018-07-01 11:00:00+00:00,1530443969,17.57,45889.18,35.36,34.76,0.13,0.53,0.27,0.75,4.49,58.15,156.149,2.18713,0.894,1.4304,0.0802,0.1604
2018-07-01 11:20:00+00:00,1530445169,17.517,45717.42,35.26,34.67,0.38,1.53,0.32,0.89,4.19,54.19,149.995,2.10095,0.893,1.4288,0.00465,0.0093
2018-07-01 11:40:00+00:00,1530446369,17.331,45924.14,35.6,34.97,0.22,0.89,0.2,0.56,3.96,51.13,151.368,2.12018,0.893,1.4288,0.0454,0.0908
2018-07-01 12:00:00+00:00,1530447568,17.154,45818.45,35.67,35.03,0.2,0.8,0.13,0.36,3.67,47.25,146.213,2.04797,0.893,1.4288,0.1362,0.2724
2018-07-01 12:20:00+00:00,1530448769,17.248,46044.8,35.78,35.13,0.12,0.49,0.15,0.43,3.32,42.83,146.226,2.04814,0.892,1.4272,0.1514,0.3028
2018-07-01 12:40:00+00:00,1530449969,17.18,45748.27,35.58,34.96,2.79,11.17,2.61,7.32,2.86,36.76,143.514,2.01016,0.891,1.4256,-0.044,-0.088
2018-07-01 13:00:00+00:00,1530451168,17.073,44688.87,34.75,34.23,0.26,1.04,0.31,0.86,2.98,38.11,144.722,2.02709,0.891,1.4256,-0.0107,-0.0214
2018-07-01 13:20:00+00:00,1530452368,17.505,45621.63,35.19,34.61,0.22,0.88,0.88,2.45,2.88,37.25,139.216,1.94994,0.8895,1.4232,-0.07785,-0.1557
2018-07-01 13:40:00+00:00,1530453568,17.335,46271.95,35.9,35.23,0.24,0.95,0.68,1.92,2.83,36.62,136.924,1.91786,0.889,1.4224,-0.0146,-0.0292
2018-07-01 14:00:00+00:00,1530454769,17.542,46041.39,35.52,34.9,0.2,0.81,0.15,0.42,2.46,31.85,119.96,1.68022,0.889,1.4224,0.0452,0.0904
2018-07-01 14:20:00+00:00,1530455969,17.738,47827.48,36.89,36.09,0.46,1.85,0.62,1.74,2.77,36.32,113.2,1.58554,0.8715,1.3944,-0.08825,-0.1765
2018-07-01 14:40:00+00:00,1530457168,18.729,49913.62,37.78,36.86,0.36,1.44,0.73,2.03,2.43,32.58,74.948,1.04977,0.845,1.352,-0.2218,-0.4436
2018-07-01 15:00:00+00:00,1530458369,19.116,52432.2,39.56,38.4,0.3,1.21,0.64,1.8,2.63,35.88,62.887,0.88081,0.831,1.3296,-0.2143,-0.4286
2018-07-01 15:20:00+00:00,1530459569,19.16,53091.09,40.08,38.84,0.45,1.8,0.69,1.93,2.82,38.68,61.382,0.85976,0.8135,1.3016,-0.2451,-0.4902
2018-07-01 15:40:00+00:00,1530460769,19.255,51386.12,38.54,37.52,0.2,0.81,0.57,1.61,3.25,44.22,55.767,0.78111,0.799,1.2784,-0.2246,-0.4492
2018-07-01 16:00:00+00:00,1530461969,19.337,53154.09,39.96,38.74,0.36,1.45,0.63,1.76,3.54,48.74,48.245,0.67576,0.792,1.2672,-0.2944,-0.5888
2018-07-01 16:20:00+00:00,1530463169,19.488,50896.65,37.92,36.98,0.2,0.81,0.5,1.41,3.7,50.38,41.31,0.57861,0.787,1.2592,-0.17715,-0.3543
2018-07-01 16:40:00+00:00,1530464368,19.459,51870.55,38.76,37.71,0.12,0.48,0.35,0.98,3.61,49.4,41.041,0.57487,0.801,1.2816,-0.0012,-0.0024
2018-07-01 17:00:00+00:00,1530465569,19.355,52347.2,39.26,38.14,0.03,0.1,0.17,0.47,3.07,42.05,43.143,0.6043,0.807,1.2912,-0.0024,-0.0048
2018-07-01 17:20:00+00:00,1530466769,19.359,49970.23,37.26,36.4,0.05,0.2,0.16,0.46,2.81,38.04,51.012,0.71453,0.8095,1.2952,0.0145,0.029
2018-07-01 17:40:00+00:00,1530467969,19.57,50766.55,37.73,36.82,0.14,0.56,0.23,0.64,3.15,42.98,50.176,0.70279,0.813,1.3008,0.052,0.104
2018-07-01 18:00:00+00:00,1530469169,19.884,51401.82,37.98,37.03,0.07,0.28,0.25,0.71,3.08,42.27,48.645,0.68134,0.816,1.3056,0,0
2018-07-01 18:20:00+00:00,1530470370,20.402,54156.46,39.79,38.59,0.09,0.35,0.52,1.47,3.93,55.1,48.339,0.67706,0.818,1.3088,0.03105,0.0621
2018-07-01 18:40:00+00:00,1530471569,21.126,54505.9,39.4,38.26,0.2,0.8,0.41,1.15,5.31,75.14,46.071,0.64529,0.82,1.312,-0.0403,-0.0806
2018-07-01 19:00:00+00:00,1530472769,21.451,54857.63,39.39,38.25,0.07,0.28,0.19,0.53,6.82,97.06,44.603,0.62475,0.82,1.312,0.0098,0.0196
2018-07-01 19:20:00+00:00,1530473970,22.207,54132.09,38.12,37.17,0.07,0.28,0.16,0.46,9.69,138.79,43.752,0.61283,0.8215,1.3144,-0.02265,-0.0453
2018-07-01 19:40:00+00:00,1530475169,22.302,55773.56,39.35,38.22,0.1,0.38,0.18,0.51,8.56,123.75,41.791,0.58535,0.823,1.3168,-0.0074,-0.0148
2018-07-01 20:00:00+00:00,1530476369,22.277,54163.43,38.09,37.14,0.11,0.45,0.16,0.45,7.37,105.73,41.789,0.58533,0.824,1.3184,-0.011,-0.022
2018-07-01 20:20:00+00:00,1530477570,22.155,53391.07,37.58,36.7,0.04,0.16,0.06,0.18,8.04,114.76,40.985,0.57406,0.8265,1.3224,0.01415,0.0283
2018-07-01 20:40:00+00:00,1530478770,22.883,57824.84,40.44,39.17,0.12,0.49,0.24,0.67,10.03,147.35,38.828,0.54383,0.829,1.3264,0.0173,0.0346
2018-07-01 21:00:00+00:00,1530479969,22.878,55858.16,38.89,37.84,0.09,0.37,0.15,0.42,10.04,146.11,37.923,0.5312,0.83,1.328,0.0767,0.1534
2018-07-01 21:20:00+00:00,1530481170,22.732,56953.02,39.89,38.7,0.14,0.56,0.1,0.28,9.9,144.56,37.731,0.52853,0.8335,1.3336,0.03165,0.0633
2018-07-01 21:40:00+00:00,1530482370,22.879,57000.45,39.79,38.61,0.21,0.84,0.27,0.76,10.33,151.23,37.573,0.52627,0.836,1.3376,0.0237,0.0474
2018-07-01 22:00:00+00:00,1530483570,22.877,53260.03,36.86,36.08,0.11,0.45,0.2,0.57,10.51,151.18,38.256,0.53581,0.838,1.3408,0.0187,0.0374
2018-07-01 22:20:00+00:00,1530484769,22.933,54870.48,38.07,37.13,0.26,1.02,0.41,1.14,10.74,155.79,43.265,0.60603,0.84,1.344,0.05385,0.1077
2018-07-01 22:40:00+00:00,1530485970,22.846,54051.35,37.51,36.64,0.48,1.93,0.42,1.17,10.85,156.53,50.987,0.71415,0.842,1.3472,0.0502,0.1004
2018-07-01 23:00:00+00:00,1530487170,22.907,54410.95,37.73,36.84,0.45,1.81,0.49,1.37,10.47,151.51,55.953,0.78375,0.843,1.3488,0.0603,0.1206
2018-07-01 23:20:00+00:00,1530488369,22.905,54722.6,37.98,37.05,0.85,3.39,0.73,2.05,10.7,155.01,63.066,0.88334,0.8465,1.3544,0.0379,0.0758
2018-07-01 23:40:00+00:00,1530489569,22.743,55008.35,38.35,37.37,1.04,4.16,0.92,2.57,11.52,166.75,72.798,1.01965,0.849,1.3584,0.0532,0.1064
2018-07-02 00:00:00+00:00,1530490769,22.618,54745.23,38.25,37.28,1.67,6.66,1.7,4.75,10.51,151.7,83.426,1.1685,0.85,1.36,0.0723,0.1446
2018-07-02 00:20:00+00:00,1530491970,22.429,52516,36.66,35.9,2.11,8.44,0.6,1.67,11.35,161.8,93.722,1.31276,0.851,1.3616,0.04825,0.0965
2018-07-02 00:40:00+00:00,1530493170,22.288,49979.71,34.78,34.26,2.24,8.95,2.1,5.87,11.63,163.69,102.9,1.44131,0.852,1.3632,0.0559,0.1118
2018-07-02 01:00:00+00:00,1530494369,22.106,51368.96,36.02,35.34,1,3.99,0.84,2.35,11.76,166.05,112.537,1.57624,0.854,1.3664,0.0395,0.079
2018-07-02 01:20:00+00:00,1530495569,21.92,48670.49,34.05,33.61,2.27,9.08,1.99,5.56,11.87,165.24,119.403,1.67242,0.8565,1.3704,0.06265,0.1253
2018-07-02 01:40:00+00:00,1530496770,21.739,49067.73,34.51,34.01,0.7,2.79,0.82,2.29,11.5,160.02,129.22,1.80999,0.859,1.3744,0.05,0.1
2018-07-02 02:00:00+00:00,1530497970,21.448,48090.89,33.96,33.53,2.07,8.28,2.02,5.65,11.75,162.18,,,0.859,1.3744,0.0385,0.077
2018-07-02 02:20:00+00:00,1530499169,21.321,47533.35,33.62,33.23,1.46,5.86,2.33,6.52,10.83,148.76,,,0.86,1.376,0.0398,0.0796
2018-07-02 02:40:00+00:00,1530500369,20.951,47218.11,33.66,33.26,4.21,16.85,5.21,14.59,12.44,169.81,,,0.861,1.3776,0.0501,0.1002
2018-07-02 03:00:00+00:00,1530501569,20.416,44785.85,32.13,31.9,12.53,50.12,13.27,37.16,12.68,169.85,188.911,2.64602,0.862,1.3792,0.0206,0.0412
2018-07-02 03:20:00+00:00,1530502770,20.185,49304.44,35.98,35.29,5.05,20.21,5.29,14.82,12.03,164.11,202.798,2.84053,0.8625,1.38,0.01225,0.0245
2018-07-02 03:40:00+00:00,1530503969,19.917,47922.12,35.07,34.5,6.27,25.09,6.82,19.1,11.61,156.76,218.064,3.05438,0.864,1.3824,0.0297,0.0594
2018-07-02 04:00:00+00:00,1530505169,19.655,46963.88,34.5,34,6.72,26.87,6.69,18.72,11.92,159.61,230.476,3.22819,0.865,1.384,0.0039,0.0078
2018-07-02 04:20:00+00:00,1530506370,19.439,46574.51,34.36,33.87,8.37,33.48,7.25,20.3,11.09,147.88,242.945,3.40288,0.868,1.3888,0.0188,0.0376
2018-07-02 04:40:00+00:00,1530507569,19.115,44251.08,32.7,32.41,5.77,23.09,6.06,16.97,11.88,155.91,253.516,3.55094,0.871,1.3936,0,0
2018-07-02 05:00:00+00:00,1530508768,18.98,44752.28,33.22,32.87,5.38,21.53,6.12,17.13,10.67,140.02,258.232,3.61698,0.871,1.3936,-0.0156,-0.0312
2018-07-02 05:20:00+00:00,1530509968,18.76,45597.92,34.11,33.65,4.46,17.86,5.04,14.11,10.69,140.52,266.206,3.72867,0.8735,1.3976,-0.00455,-0.0091
2018-07-02 05:40:00+00:00,1530511169,18.464,45497.15,34.27,33.79,6.63,26.52,6.71,18.78,10.29,134.57,271.871,3.80801,0.874,1.3984,0.0588,0.1176
2018-07-02 06:00:00+00:00,1530512368,18.309,45336.29,34.26,33.79,7.36,29.44,7.21,20.18,10.07,131.36,275.981,3.86557,0.877,1.4032,0.0432,0.0864
2018-07-02 06:20:00+00:00,1530513569,18.29,45525.98,34.44,33.94,4.92,19.69,5.94,16.63,9.99,130.36,270.24,3.7852,0.881,1.4096,0.06455,0.1291
2018-07-02 06:40:00+00:00,1530514768,17.96,43110.13,32.66,32.37,7.59,30.36,8.56,23.96,9.89,126.89,273.736,3.83415,0.882,1.4112,0.0896,0.1792
2018-07-02 07:00:00+00:00,1530515969,17.803,43271.89,32.92,32.61,6.32,25.29,8.19,22.94,8.34,106.91,273.677,3.83334,0.884,1.4144,0.0925,0.185
2018-07-02 07:20:00+00:00,1530517168,17.671,44074.73,33.72,33.31,4.6,18.39,6.22,17.41,8.97,115.31,271.329,3.80042,0.8855,1.4168,0.05555,0.1111
2018-07-02 07:40:00+00:00,1530518369,17.612,43897.82,33.62,33.22,8.26,33.05,9.7,27.15,8.77,112.42,268.197,3.75657,0.888,1.4208,0.0504,0.1008
2018-07-02 08:00:00+00:00,1530519568,17.542,43648.05,33.46,33.08,12.48,49.93,12.64,35.39,8.65,110.68,264.335,3.70246,0.891,1.4256,0.0906,0.1812
2018-07-02 08:20:00+00:00,1530520768,17.5,43860.15,33.68,33.28,5.37,21.48,6.17,17.27,8.09,103.54,255.849,3.58361,0.8935,1.4296,0.0461,0.0922
2018-07-02 08:40:00+00:00,1530521968,17.568,42862.7,32.77,32.47,5.5,21.98,5.05,14.15,8.7,110.96,253.53,3.55112,0.896,1.4336,0.1085,0.217
2018-07-02 09:00:00+00:00,1530523168,17.515,43518.07,33.37,33.01,5.61,22.45,4.81,13.47,8.25,105.43,250.265,3.50538,0.897,1.4352,0.102,0.204
2018-07-02 09:20:00+00:00,1530524368,17.436,44483.98,34.27,33.8,4.96,19.82,4.46,12.48,8.03,103.06,246.886,3.45804,0.8985,1.4376,0.0786,0.1572
2018-07-02 09:40:00+00:00,1530525568,17.424,43437.21,33.37,33.01,9,36,9.25,25.9,8.05,102.73,246.18,3.44817,0.902,1.4432,0.0715,0.143
2018-07-02 10:00:00+00:00,1530526769,17.305,42579.65,32.74,32.45,11.83,47.32,12.03,33.67,7.54,95.66,241.407,3.38129,0.903,1.4448,0.077,0.154
2018-07-02 10:20:00+00:00,1530527968,17.162,42858.01,33.09,32.76,16.29,65.18,16.43,46,6.79,86.08,236.635,3.31446,0.9035,1.4456,0.0608,0.1216
2018-07-02 10:40:00+00:00,1530529168,17.251,43895.66,33.91,33.49,6.19,24.77,6.24,17.47,7.71,98.4,235.463,3.29807,0.904,1.4464,0.0595,0.119
2018-07-02 11:00:00+00:00,1530530368,17.273,43597.22,33.64,33.24,2.99,11.96,2.77,7.77,6.81,86.78,230.626,3.23031,0.904,1.4464,0.0446,0.0892
2018-07-02 11:20:00+00:00,1530531568,17.821,44658.25,34.09,33.64,0.61,2.44,0.53,1.48,5.72,73.9,225.332,3.15614,0.904,1.4464,0.06015,0.1203
2018-07-02 11:40:00+00:00,1530532768,17.762,44105.11,33.67,33.27,0.42,1.7,0.45,1.25,4.99,64.17,221.512,3.10269,0.904,1.4464,-0.0176,-0.0352
2018-07-02 12:00:00+00:00,1530533968,17.423,43652.97,33.56,33.18,1.57,6.26,1.76,4.92,4.58,58.56,218.942,3.06665,0.903,1.4448,0.0365,0.073
2018-07-02 12:20:00+00:00,1530535168,17.439,42630.47,32.67,32.39,3.81,15.25,3.4,9.52,4.82,61.29,211.025,2.95575,0.903,1.4448,0.0473,0.0946
2018-07-02 12:40:00+00:00,1530536368,17.431,44728.04,34.48,33.99,1.55,6.19,1.61,4.5,4.28,55,200.462,2.80779,0.902,1.4432,0.085,0.17
2018-07-02 13:00:00+00:00,1530537569,17.409,43149.75,33.14,32.8,0.53,2.13,0.52,1.45,3.88,49.46,191.614,2.68386,0.902,1.4432,0.0148,0.0296
2018-07-02 13:20:00+00:00,1530538769,17.218,44260.2,34.26,33.79,5.35,21.38,4,11.21,3.33,42.57,187.453,2.6256,0.902,1.4432,0.03915,0.0783
2018-07-02 13:40:00+00:00,1530539968,17.311,44439.99,34.33,33.86,10.51,42.06,8.39,23.49,3.41,43.6,176.464,2.4717,0.9,1.44,0.039,0.078
2018-07-02 14:00:00+00:00,1530541168,17.173,45553.77,35.42,34.81,0.9,3.61,0.83,2.33,3.04,39.12,167.438,2.34525,0.9,1.44,0.0242,0.0484
2018-07-02 14:20:00+00:00,1530542368,17.179,44506.97,34.5,34.01,1.15,4.59,1.19,3.33,2.65,33.95,160.511,2.24824,0.9,1.44,0.0357,0.0714
2018-07-02 14:40:00+00:00,1530543568,17.192,44936.25,34.87,34.33,0.69,2.77,0.49,1.38,2.68,34.35,149.314,2.09139,0.899,1.4384,0.0027,0.0054
2018-07-02 15:00:00+00:00,1530544768,17.129,46391.34,36.19,35.49,0.95,3.79,0.96,2.68,1.96,25.32,120.994,1.69472,0.898,1.4368,-0.0376,-0.0752
2018-07-02 15:20:00+00:00,1530545968,17.565,46119.75,35.57,34.94,1.21,4.86,1.28,3.58,2.72,35.23,134.577,1.88499,0.8765,1.4024,-0.19745,-0.3949
2018-07-02 15:40:00+00:00,1530547168,18.381,47849.46,36.33,35.6,1.09,4.37,1.51,4.22,3.22,42.52,119.022,1.66711,0.855,1.368,-0.2526,-0.5052
2018-07-02 16:00:00+00:00,1530548369,18.955,49998.85,37.65,36.74,1.15,4.61,1.62,4.54,3.71,49.95,98.206,1.37554,0.846,1.3536,-0.2738,-0.5476
2018-07-02 16:20:00+00:00,1530549568,19.145,49001.68,36.63,35.86,1.36,5.46,1.64,4.59,3.98,53.42,89.962,1.26006,0.835,1.336,-0.21725,-0.4345
2018-07-02 16:40:00+00:00,1530550768,19.222,51541.75,38.71,37.66,1.48,5.91,1.86,5.2,3.93,53.56,88.973,1.24624,0.831,1.3296,-0.1734,-0.3468
2018-07-02 17:00:00+00:00,1530551968,19.114,50309.81,37.76,36.84,0.43,1.7,0.58,1.62,3.13,42.26,89.885,1.259,0.84,1.344,-0.0589,-0.1178
2018-07-02 17:20:00+00:00,1530553168,18.787,49212.52,37.13,36.3,1.59,6.37,1.7,4.75,2.36,31.65,108.03,1.51317,0.846,1.3536,0.00445,0.0089
2018-07-02 17:40:00+00:00,1530554368,18.951,47994.26,35.96,35.27,0.43,1.73,0.49,1.37,2.48,33.06,108.989,1.52658,0.848,1.3568,0,0
2018-07-02 18:00:00+00:00,1530555568,19.136,47993.01,35.79,35.13,4.6,18.41,4.11,11.52,4.24,56.64,109.499,1.5337,0.851,1.3616,-0.0254,-0.0508
2018-07-02 18:20:00+00:00,1530556768,19.444,48511.03,35.96,35.28,1.6,6.41,1.42,3.98,5.62,75.64,109.649,1.53581,0.8545,1.3672,-0.01465,-0.0293
2018-07-02 18:40:00+00:00,1530557968,19.75,49210.79,36.28,35.55,1.51,6.03,1.5,4.21,5.35,72.49,104.002,1.45672,0.854,1.3664,0.0191,0.0382
2018-07-02 19:00:00+00:00,1530559169,20.166,50822.16,37.25,36.39,1.45,5.79,1.16,3.24,8.01,110.09,99.493,1.39356,0.857,1.3712,-0.0512,-0.1024
2018-07-02 19:20:00+00:00,1530560369,20.626,50345.55,36.45,35.71,0.86,3.42,0.95,2.66,9.12,125.73,97.57,1.36663,0.8575,1.372,0.00575,0.0115
2018-07-02 19:40:00+00:00,1530561569,20.788,50547.9,36.48,35.73,1.79,7.17,1.77,4.95,8.76,121.24,94.343,1.32143,0.858,1.3728,0.0179,0.0358
2018-07-02 20:00:00+00:00,1530562767,20.89,50786.16,36.58,35.82,0.81,3.22,0.82,2.3,7.81,108.25,94.465,1.32315,0.859,1.3744,0.0231,0.0462
2018-07-02 20:20:00+00:00,1530563968,21.07,51037.07,36.63,35.87,0.92,3.68,0.87,2.44,8.5,118.27,92.863,1.30069,0.861,1.3776,0.0199,0.0398
2018-07-02 20:40:00+00:00,1530565168,21.16,52297,37.57,36.68,0.51,2.05,0.74,2.07,7.62,106.88,92.241,1.292,0.862,1.3792,0.0296,0.0592
2018-07-02 21:00:00+00:00,1530566369,21.514,51377.4,36.53,35.78,1.21,4.84,1.37,3.84,8.08,113.34,89.248,1.25008,0.864,1.3824,0.0387,0.0774
2018-07-02 21:20:00+00:00,1530567568,21.817,53279.96,37.79,36.87,1.24,4.97,1.39,3.88,9.24,131.26,87.772,1.22939,0.8665,1.3864,0.02265,0.0453
2018-07-02 21:40:00+00:00,1530568769,21.935,53057.27,37.51,36.63,1.73,6.93,1.85,5.17,9.88,140.27,88.575,1.24063,0.87,1.392,0.039,0.078
2018-07-02 22:00:00+00:00,1530569969,22.195,53148.3,37.35,36.5,1.25,5.02,1.29,3.61,10.63,151.58,87.801,1.22979,0.871,1.3936,0,0
2018-07-02 22:20:00+00:00,1530571168,22.259,52942,37.14,36.31,1.1,4.4,1.25,3.51,11.08,157.97,84.601,1.18499,0.8735,1.3976,0.0411,0.0822
2018-07-02 22:40:00+00:00,1530572368,22.159,52513.2,36.88,36.09,0.35,1.39,0.38,1.06,10.38,147.53,88.203,1.23542,0.875,1.4,0.0431,0.0862
2018-07-02 23:00:00+00:00,1530573568,22.244,52601.82,36.88,36.09,1.5,5.99,1.62,4.54,12.36,175.97,84.232,1.17984,0.877,1.4032,0.0301,0.0602
2018-07-03 06:00:00+00:00,1530598767,18.233,44234.79,33.39,33.02,4.64,18.58,5.7,15.97,10.22,132.51,218.713,3.06348,0.904,1.4464,0.0852,0.1704
2018-07-03 06:20:00+00:00,1530599968,17.826,43748.91,33.31,32.95,8.21,32.84,9.69,27.13,9.86,126.63,232.22,3.25263,0.9045,1.4472,0.05345,0.1069
2018-07-03 06:40:00+00:00,1530601167,17.896,43232.56,32.82,32.51,5.87,23.46,7.5,20.99,9.79,125.55,222.566,3.11739,0.906,1.4496,0.0868,0.1736
2018-07-03 07:00:00+00:00,1530602368,18.095,45038.57,34.19,33.72,8.92,35.7,11.11,31.12,10.11,131.25,209.628,2.9362,0.907,1.4512,0.0584,0.1168
2018-07-03 07:20:00+00:00,1530603567,17.734,44693.59,34.2,33.73,9.03,36.14,9.83,27.52,9.06,116.82,214.042,2.998,0.9085,1.4536,0.0517,0.1034
2018-07-03 07:40:00+00:00,1530604768,17.648,45159.98,34.67,34.15,9.67,38.68,9.5,26.59,9.14,118.05,218.183,3.05605,0.91,1.456,0.0858,0.1716
2018-07-03 08:00:00+00:00,1530605968,17.884,44685.5,34.06,33.61,7.88,31.52,8.64,24.18,8.55,110.47,203.73,2.85356,0.912,1.4592,0.0601,0.1202
2018-07-03 08:20:00+00:00,1530607168,18.133,44866.17,34.01,33.57,9.05,36.2,9.07,25.4,7.89,102.46,193.012,2.70345,0.916,1.4656,0.0686,0.1372
2018-07-03 08:40:00+00:00,1530608368,18.104,46258.74,35.22,34.63,4.9,19.6,6.48,18.16,8.16,106.61,191.35,2.68017,0.917,1.4672,0.0755,0.151
2018-07-03 09:00:00+00:00,1530609568,18.066,45857.76,34.91,34.36,4.05,16.19,4.69,13.13,7.27,94.82,189.228,2.65044,0.918,1.4688,0.1141,0.2282
2018-07-03 09:20:00+00:00,1530610767,17.995,45760.33,34.89,34.34,8.4,33.61,9.59,26.86,5.97,77.76,185.186,2.59385,0.9195,1.4712,0.08265,0.1653
2018-07-03 09:40:00+00:00,1530611967,18,46213.54,35.27,34.67,5.84,23.36,6.86,19.2,5.83,76.09,180.972,2.53484,0.923,1.4768,0.1092,0.2184
2018-07-03 10:00:00+00:00,1530613167,17.881,46002.59,35.19,34.61,5.06,20.26,6.25,17.49,6.31,82.1,180.489,2.52804,0.925,1.48,0.0928,0.1856
2018-07-03 10:20:00+00:00,1530614368,17.739,44935.27,34.4,33.91,7.49,29.95,8.63,24.18,5.36,69.26,179.543,2.5148,0.926,1.4816,0.09295,0.1859
2018-07-03 10:40:00+00:00,1530615568,17.632,46205.59,35.58,34.95,7.97,31.87,8.92,24.97,5.33,69.24,177.628,2.48798,0.927,1.4832,0.0861,0.1722
2018-07-03 11:00:00+00:00,1530616768,17.617,45951.07,35.38,34.77,8.28,33.13,8.18,22.91,4.35,56.34,171.958,2.40857,0.928,1.4848,0.1251,0.2502
2018-07-03 11:20:00+00:00,1530617967,17.565,45588.12,35.11,34.54,8.03,32.14,8.98,25.13,4.96,64.17,168.409,2.35887,0.928,1.4848,0.07995,0.1599
2018-07-03 11:40:00+00:00,1530619167,17.615,45715.63,35.18,34.6,9.08,36.32,9.21,25.78,4.19,54.23,164.373,2.30232,0.928,1.4848,0.0917,0.1834
2018-07-03 12:00:00+00:00,1530620368,17.567,45547.35,35.07,34.5,4.37,17.47,7.08,19.82,4.12,53.21,161.734,2.26536,0.928,1.4848,0.1043,0.2086
2018-07-03 12:20:00+00:00,1530621567,17.5,46011.49,35.53,34.91,8.23,32.91,9.8,27.44,3.1,40.1,156.37,2.19024,0.9275,1.484,0.1063,0.2126
2018-07-03 12:40:00+00:00,1530622768,17.381,43665.34,33.61,33.22,6.71,26.85,7.71,21.58,3.7,47.28,156.24,2.18841,0.927,1.4832,0.0736,0.1472
2018-07-03 13:00:00+00:00,1530623968,17.29,44930.15,34.78,34.25,6.98,27.91,6.75,18.9,3.48,44.61,153.767,2.15376,0.926,1.4816,0.0402,0.0804
2018-07-03 13:20:00+00:00,1530625168,17.128,44263.68,34.34,33.86,5.45,21.8,5.41,15.15,2.49,31.79,152.747,2.1395,0.9255,1.4808,0.04095,0.0819
2018-07-03 13:40:00+00:00,1530626368,17.019,44453.15,34.6,34.09,9.71,38.82,8.95,25.06,3.4,43.34,148.929,2.08599,0.925,1.48,0.0693,0.1386
2018-07-03 14:00:00+00:00,1530627568,16.724,44451.14,34.85,34.32,3.49,13.95,2.9,8.13,2.48,31.49,142.74,1.99934,0.925,1.48,0.0069,0.0138
2018-07-03 14:20:00+00:00,1530628767,16.693,44061.39,34.53,34.04,5.69,22.77,5.19,14.54,2.5,31.67,139.653,1.95609,0.925,1.48,0.0201,0.0402
2018-07-03 14:40:00+00:00,1530629968,16.619,43791.38,34.36,33.89,1.73,6.92,1.86,5.2,2.23,28.19,137.609,1.92743,0.923,1.4768,0,0
2018-07-03 15:00:00+00:00,1530631168,16.606,41560.05,32.42,32.17,2.73,10.91,2.26,6.33,2.27,28.33,132.7,1.85867,0.923,1.4768,0.029,0.058
2018-07-03 15:20:00+00:00,1530632367,16.541,42528.3,33.32,32.97,0.46,1.86,0.75,2.09,1.84,23.01,129.128,1.80864,0.9215,1.4744,0.0207,0.0414
2018-07-03 15:40:00+00:00,1530633568,16.537,42843.9,33.6,33.22,0.4,1.6,0.49,1.39,1.84,23.06,128.386,1.79825,0.92,1.472,0.0041,0.0082
2018-07-03 16:00:00+00:00,1530634768,16.618,43075.88,33.73,33.34,0.74,2.97,0.97,2.72,1.83,23,124.983,1.75063,0.917,1.4672,0,0